Weather History for Harlan, IA

Change the Weather History Date:

Sunday, May 4, 2014

  Actual Average Record
Temperature  
Mean Temperature 54 °F -  
Max Temperature 64 °F 71 °F 90 °F (1952)
Min Temperature 44 °F 45 °F 30 °F (1954)
Degree Days  
Heating Degree Days 11    
Growing Degree Days 4 (Base 50)    
Moisture  
Dew Point 40 °F    
Average Humidity 61    
Maximum Humidity 87    
Minimum Humidity 42    
Precipitation  
Precipitation 0.00 in - - ()
Sea Level Pressure  
Sea Level Pressure 29.95 in    
Wind  
Wind Speed 11 mph (ENE)    
Max Wind Speed 25 mph    
Max Gust Speed 32 mph    
Visibility 10 miles    
Events      
Averages and records for this station are not official NWS values.
T = Trace of Precipitation, MM = Missing Value Source: NWS Daily Summary

Daily Weather History Graph

Daily Weather History Graph

Search for Another Location

Airport:

Trip Planner

Search our weather history database for the weather conditions in past years. The results will help you decide how hot, cold, wet, or windy it might be!

Date:

Astronomy

May. 04, 2014 Rise Set
Actual Time 6:14 AM CDT 8:22 PM CDT
Civil Twilight 5:43 AM CDT 8:53 PM CDT
Nautical Twilight 5:06 AM CDT 9:30 PM CDT
Astronomical Twilight 4:25 AM CDT 10:12 PM CDT
Moon 10:39 AM CDT (5/4) 12:28 AM CDT (5/4)
Length of Visible Light 15h 09m
Length of Day
14h 08m
Waxing Crescent, 28% of the Moon is Illuminated
May 4
Waxing Crescent
May 6
First Quarter
May 14
Full
May 21
Last Quarter
May 28
New

Hourly Weather History & Observations

Time (CDT) Temp. Windchill Dew Point Humidity Pressure Visibility Wind Dir Wind Speed Gust Speed Precip Events Conditions
12:15 AM 48.2 °F - 42.8 °F 82% 29.96 in 10.0 mi Calm Calm - N/A   Clear
12:35 AM 48.2 °F - 42.8 °F 82% 29.97 in 10.0 mi NE 3.5 mph - N/A   Clear
12:55 AM 48.2 °F - 42.8 °F 82% 29.98 in 10.0 mi Calm Calm - N/A   Clear
1:15 AM 46.4 °F - 41.0 °F 81% 30.00 in 10.0 mi Calm Calm - N/A   Clear
1:35 AM 46.4 °F - 42.8 °F 87% 30.00 in 10.0 mi Calm Calm - N/A   Clear
1:55 AM 44.6 °F 42.2 °F 41.0 °F 87% 30.00 in 10.0 mi NNE 4.6 mph - N/A   Clear
2:15 AM 46.4 °F 42.9 °F 42.8 °F 87% 29.99 in 10.0 mi North 6.9 mph - N/A   Clear
2:35 AM 46.4 °F 44.3 °F 42.8 °F 87% 29.99 in 10.0 mi North 4.6 mph - N/A   Clear
2:55 AM 46.4 °F 42.9 °F 42.8 °F 87% 29.98 in 10.0 mi North 6.9 mph - N/A   Clear
3:15 AM 46.4 °F 44.3 °F 42.8 °F 87% 29.99 in 10.0 mi NNE 4.6 mph - N/A   Clear
3:35 AM 46.4 °F 42.4 °F 42.8 °F 87% 29.97 in 10.0 mi NE 8.1 mph - N/A   Partly Cloudy
3:55 AM 50.0 °F - 39.2 °F 66% 29.99 in 10.0 mi North 11.5 mph - N/A   Partly Cloudy
4:15 AM 48.2 °F - 39.2 °F 71% 29.98 in 10.0 mi NE 10.4 mph - N/A   Clear
4:35 AM 48.2 °F - 39.2 °F 71% 30.00 in 10.0 mi NE 11.5 mph - N/A   Clear
4:55 AM 48.2 °F - 39.2 °F 71% 29.99 in 10.0 mi NNE 13.8 mph - N/A   Clear
5:15 AM 48.2 °F - 39.2 °F 71% 29.99 in 10.0 mi NE 18.4 mph - N/A   Clear
5:35 AM 48.2 °F - 39.2 °F 71% 30.01 in 10.0 mi NE 12.7 mph - N/A   Clear
5:55 AM 48.2 °F - 37.4 °F 66% 30.04 in 10.0 mi NE 12.7 mph 19.6 mph N/A   Partly Cloudy
6:15 AM 48.2 °F - 37.4 °F 66% 30.02 in 10.0 mi NE 15.0 mph 21.9 mph N/A   Clear
6:35 AM 46.4 °F 39.5 °F 37.4 °F 71% 29.96 in 10.0 mi ENE 17.3 mph 26.5 mph N/A   Clear
6:55 AM 46.4 °F 39.8 °F 37.4 °F 71% 29.99 in 10.0 mi NE 16.1 mph 23.0 mph N/A   Clear
7:15 AM 46.4 °F 40.1 °F 37.4 °F 71% 30.02 in 10.0 mi NE 15.0 mph - N/A   Clear
7:35 AM 46.4 °F 39.5 °F 37.4 °F 71% 30.03 in 10.0 mi NE 17.3 mph 25.3 mph N/A   Clear
7:55 AM 46.4 °F 39.2 °F 35.6 °F 66% 30.02 in 10.0 mi NE 18.4 mph 28.8 mph N/A   Clear
8:15 AM 46.4 °F 39.0 °F 37.4 °F 71% 30.03 in 10.0 mi ENE 19.6 mph 28.8 mph N/A   Clear
8:35 AM 48.2 °F - 37.4 °F 66% 30.03 in 10.0 mi NE 13.8 mph 24.2 mph N/A   Clear
8:55 AM 48.2 °F - 37.4 °F 66% 30.03 in 10.0 mi NE 23.0 mph - N/A   Clear
9:15 AM 50.0 °F - 37.4 °F 62% 30.04 in 10.0 mi NE 20.7 mph 27.6 mph N/A   Clear
9:35 AM 50.0 °F - 37.4 °F 62% 30.02 in 10.0 mi ENE 25.3 mph 32.2 mph N/A   Clear
9:55 AM 50.0 °F - 37.4 °F 62% 30.02 in 10.0 mi ENE 20.7 mph 29.9 mph N/A   Clear
10:15 AM - - - N/A% - 10.0 mi North - - N/A   Clear
10:35 AM 53.6 °F - 37.4 °F 54% 30.02 in 10.0 mi ENE 20.7 mph 28.8 mph N/A   Clear
10:55 AM 53.6 °F - 37.4 °F 54% 30.02 in 10.0 mi ENE 23.0 mph 29.9 mph N/A   Clear
11:15 AM 53.6 °F - 37.4 °F 54% 30.02 in 10.0 mi ENE 24.2 mph 29.9 mph N/A   Clear
11:35 AM 55.4 °F - 37.4 °F 51% 30.00 in 10.0 mi East 21.9 mph 31.1 mph N/A   Clear
11:55 AM 57.2 °F - 37.4 °F 48% 30.01 in 10.0 mi East 18.4 mph 29.9 mph N/A   Clear
12:15 PM 59.0 °F - 39.2 °F 48% 30.00 in 10.0 mi East 20.7 mph 27.6 mph N/A   Clear
12:35 PM 59.0 °F - 37.4 °F 45% 29.98 in 10.0 mi East 21.9 mph 28.8 mph N/A   Clear
12:55 PM 60.8 °F - 39.2 °F 45% 29.97 in 10.0 mi ENE 21.9 mph 28.8 mph N/A   Clear
1:15 PM 60.8 °F - 39.2 °F 45% 29.97 in 10.0 mi East 19.6 mph 28.8 mph N/A   Clear
1:35 PM 60.8 °F - 39.2 °F 45% 29.96 in 10.0 mi East 17.3 mph 27.6 mph N/A   Clear
1:55 PM 60.8 °F - 39.2 °F 45% 29.97 in 10.0 mi ENE 19.6 mph 25.3 mph N/A   Clear
2:15 PM 60.8 °F - 39.2 °F 45% 29.93 in 10.0 mi East 24.2 mph 29.9 mph N/A   Clear
2:35 PM 62.6 °F - 39.2 °F 42% 29.94 in 10.0 mi East 18.4 mph 25.3 mph N/A   Clear
2:55 PM 62.6 °F - 39.2 °F 42% 29.96 in 10.0 mi East 18.4 mph - N/A   Clear
3:15 PM 62.6 °F - 39.2 °F 42% 29.92 in 10.0 mi East 19.6 mph - N/A   Clear
3:35 PM 64.4 °F - 41.0 °F 42% 29.93 in 10.0 mi East 18.4 mph 25.3 mph N/A   Clear
3:55 PM 64.4 °F - 41.0 °F 42% 29.93 in 10.0 mi East 15.0 mph 25.3 mph N/A   Clear
4:15 PM 62.6 °F - 41.0 °F 45% 29.92 in 10.0 mi ESE 18.4 mph - N/A   Clear
4:35 PM 62.6 °F - 41.0 °F 45% 29.93 in 10.0 mi ESE 13.8 mph 19.6 mph N/A   Clear
4:55 PM 64.4 °F - 41.0 °F 42% 29.91 in 10.0 mi East 15.0 mph - N/A   Clear
5:15 PM 62.6 °F - 41.0 °F 45% 29.88 in 10.0 mi ESE 19.6 mph - N/A   Clear
5:35 PM 64.4 °F - 41.0 °F 42% 29.91 in 10.0 mi ESE 15.0 mph 21.9 mph N/A   Clear
5:55 PM 64.4 °F - 41.0 °F 42% 29.88 in 10.0 mi ESE 18.4 mph 27.6 mph N/A   Clear
6:15 PM 62.6 °F - 41.0 °F 45% 29.89 in 10.0 mi ESE 16.1 mph 26.5 mph N/A   Clear
6:35 PM 62.6 °F - 42.8 °F 48% 29.90 in 10.0 mi East 11.5 mph - N/A   Clear
6:55 PM 62.6 °F - 41.0 °F 45% 29.88 in 10.0 mi ESE 15.0 mph 23.0 mph N/A   Clear
7:15 PM 62.6 °F - 42.8 °F 48% 29.86 in 10.0 mi ESE 12.7 mph 18.4 mph N/A   Clear
7:35 PM 60.8 °F - 42.8 °F 52% 29.86 in 10.0 mi East 11.5 mph - N/A   Clear
7:55 PM 60.8 °F - 42.8 °F 52% 29.87 in 10.0 mi East 10.4 mph - N/A   Clear
8:15 PM 59.0 °F - 42.8 °F 55% 29.87 in 10.0 mi East 10.4 mph - N/A   Clear
8:35 PM 59.0 °F - 42.8 °F 55% 29.87 in 10.0 mi ENE 9.2 mph - N/A   Clear
8:55 PM 57.2 °F - 42.8 °F 59% 29.86 in 10.0 mi ENE 9.2 mph - N/A   Clear
9:15 PM 57.2 °F - 42.8 °F 59% 29.87 in 10.0 mi ENE 9.2 mph - N/A   Clear
9:35 PM 55.4 °F - 42.8 °F 63% 29.88 in 10.0 mi NE 9.2 mph - N/A   Clear
9:55 PM 55.4 °F - 42.8 °F 63% 29.89 in 10.0 mi ENE 8.1 mph - N/A   Clear
10:15 PM 55.4 °F - 41.0 °F 58% 29.89 in 10.0 mi ENE 8.1 mph - N/A   Clear
10:35 PM 53.6 °F - 41.0 °F 62% 29.88 in 10.0 mi ENE 9.2 mph - N/A   Clear
10:55 PM 53.6 °F - 41.0 °F 62% 29.88 in 10.0 mi ENE 6.9 mph - N/A   Clear
11:15 PM 53.6 °F - 41.0 °F 62% 29.88 in 10.0 mi NE 8.1 mph - N/A   Clear
11:35 PM 53.6 °F - 42.8 °F 67% 29.87 in 10.0 mi NE 8.1 mph - N/A   Clear
11:55 PM 51.8 °F - 41.0 °F 67% 29.86 in 10.0 mi ENE 9.2 mph - N/A   Clear